When you browse on this site, cookies collect data to enhance your experience and personalize the content and advertising you see.
Visit our Privacy Policy to learn more. By continuing to use the site, you agree to this use of cookies and data.
  • In Hungary
  • List of Countries
  • For 7 days
  • Water Temperature
  • Satellite Maps
  • Weather Map
  • News
  • Weather Widgets
  • user-avatar
    Login

    Hourly Weather Jambol

    Today, 19 January, Saturday

    Time Temperature Precipitation Wind Pressure Humidity
    00:00 +5°C° 0 mm 1 mps 750 mmHg 76%
    01:00 +5°C° 0 mm 1 mps 750 mmHg 75%
    02:00 +5°C° 0 mm 1 mps 750 mmHg 74%
    03:00 +5°C° 0 mm 1 mps 751 mmHg 74%
    04:00 +4°C° 0 mm 1 mps 751 mmHg 73%
    05:00 +4°C° 0 mm 1 mps 751 mmHg 72%
    06:00 +4°C° 0 mm 1 mps 751 mmHg 73%
    07:00 +4°C° 0 mm 1 mps 752 mmHg 74%
    08:00 +4°C° 0 mm 1 mps 752 mmHg 74%
    09:00 +6°C° 0 mm 1 mps 753 mmHg 71%
    10:00 +7°C° 0 mm 1 mps 753 mmHg 67%
    11:00 +8°C° 0 mm 2 mps 753 mmHg 64%
    12:00 +8°C° 0 mm 2 mps 753 mmHg 64%
    13:00 +9°C° 0 mm 3 mps 753 mmHg 64%
    14:00 +9°C° 0 mm 3 mps 753 mmHg 64%
    15:00 +7°C° 0 mm 4 mps 753 mmHg 69%
    16:00 +6°C° 0 mm 4 mps 753 mmHg 74%
    17:00 +5°C° 0 mm 4 mps 753 mmHg 79%
    18:00 +4°C° 0.1 mm 4 mps 753 mmHg 83%
    19:00 +4°C° 0.1 mm 4 mps 753 mmHg 86%
    20:00 +3°C° 0.1 mm 4 mps 753 mmHg 89%
    21:00 +4°C° 0.2 mm 4 mps 753 mmHg 90%
    22:00 +4°C° 0.2 mm 3 mps 753 mmHg 91%
    23:00 +4°C° 0.2 mm 3 mps 753 mmHg 91%

    Tomorrow, 20 January, Sunday

    Time Temperature Precipitation Wind Pressure Humidity
    00:00 +4°C° 0.2 mm 3 mps 753 mmHg 92%
    01:00 +4°C° 0.2 mm 3 mps 753 mmHg 93%
    02:00 +5°C° 0.2 mm 2 mps 753 mmHg 94%
    03:00 +5°C° 0.4 mm 2 mps 752 mmHg 94%
    04:00 +5°C° 0.4 mm 2 mps 752 mmHg 95%
    05:00 +5°C° 0.4 mm 2 mps 752 mmHg 96%
    06:00 +5°C° 0.3 mm 2 mps 752 mmHg 96%
    07:00 +5°C° 0.3 mm 2 mps 751 mmHg 96%
    08:00 +6°C° 0.3 mm 1 mps 751 mmHg 96%
    09:00 +7°C° 0.4 mm 1 mps 751 mmHg 96%
    10:00 +7°C° 0.4 mm 1 mps 751 mmHg 95%
    11:00 +8°C° 0.4 mm 1 mps 751 mmHg 94%
    12:00 +8°C° 0.3 mm 1 mps 750 mmHg 94%
    13:00 +8°C° 0.3 mm 1 mps 750 mmHg 93%
    14:00 +9°C° 0.3 mm 1 mps 749 mmHg 93%
    15:00 +8°C° 0.1 mm 1 mps 749 mmHg 94%
    16:00 +8°C° 0.1 mm 1 mps 749 mmHg 95%
    17:00 +8°C° 0.1 mm 1 mps 749 mmHg 96%
    18:00 +8°C° 0.1 mm 1 mps 749 mmHg 95%
    19:00 +7°C° 0.1 mm 0 mps 749 mmHg 95%
    20:00 +7°C° 0.1 mm 0 mps 749 mmHg 95%
    21:00 +7°C° 0.1 mm 0 mps 749 mmHg 95%
    22:00 +8°C° 0.1 mm 1 mps 749 mmHg 95%
    23:00 +8°C° 0.1 mm 1 mps 749 mmHg 95%

    Day after tomorrow, 21 January, Monday

    Time Temperature Precipitation Wind Pressure Humidity
    00:00 +8°C° 0 mm 1 mps 749 mmHg 94%
    01:00 +7°C° 0 mm 1 mps 749 mmHg 94%
    02:00 +7°C° 0 mm 1 mps 749 mmHg 94%
    03:00 +7°C° 0 mm 1 mps 749 mmHg 93%
    04:00 +7°C° 0 mm 1 mps 749 mmHg 92%
    05:00 +6°C° 0 mm 1 mps 749 mmHg 91%
    06:00 +6°C° 0 mm 1 mps 750 mmHg 90%
    07:00 +6°C° 0 mm 1 mps 750 mmHg 89%
    08:00 +6°C° 0 mm 1 mps 751 mmHg 88%
    09:00 +7°C° 0 mm 1 mps 751 mmHg 82%
    10:00 +8°C° 0 mm 1 mps 751 mmHg 77%
    11:00 +9°C° 0 mm 1 mps 751 mmHg 71%
    12:00 +9°C° 0 mm 1 mps 751 mmHg 69%
    13:00 +10°C° 0 mm 1 mps 751 mmHg 66%
    14:00 +11°C° 0 mm 1 mps 751 mmHg 63%
    15:00 +9°C° 0 mm 2 mps 751 mmHg 67%
    16:00 +8°C° 0 mm 2 mps 751 mmHg 71%
    17:00 +8°C° 0 mm 2 mps 751 mmHg 75%
    18:00 +7°C° 0 mm 3 mps 752 mmHg 78%
    19:00 +5°C° 0 mm 3 mps 752 mmHg 80%
    20:00 +4°C° 0 mm 3 mps 753 mmHg 82%
    21:00 +4°C° 0 mm 3 mps 753 mmHg 83%
    22:00 +3°C° 0 mm 3 mps 753 mmHg 84%
    23:00 +3°C° 0 mm 3 mps 753 mmHg 85%

    22 January, Tuesday

    Time Temperature Precipitation Wind Pressure Humidity
    00:00 +3°C° 0 mm 3 mps 753 mmHg 86%
    01:00 +3°C° 0 mm 3 mps 753 mmHg 87%
    02:00 +3°C° 0 mm 2 mps 753 mmHg 89%
    03:00 +3°C° 0 mm 2 mps 752 mmHg 89%
    04:00 +3°C° 0 mm 2 mps 752 mmHg 90%
    05:00 +2°C° 0 mm 3 mps 752 mmHg 91%
    06:00 +3°C° 0.1 mm 3 mps 752 mmHg 91%
    07:00 +3°C° 0.1 mm 3 mps 751 mmHg 92%
    08:00 +3°C° 0.1 mm 3 mps 751 mmHg 92%
    09:00 +3°C° 0.1 mm 3 mps 751 mmHg 92%
    10:00 +5°C° 0.1 mm 2 mps 751 mmHg 91%
    11:00 +5°C° 0.1 mm 2 mps 751 mmHg 91%
    12:00 +5°C° 0.2 mm 2 mps 750 mmHg 91%
    13:00 +6°C° 0.2 mm 2 mps 749 mmHg 91%
    14:00 +6°C° 0.2 mm 2 mps 749 mmHg 90%
    15:00 +6°C° 0.1 mm 2 mps 748 mmHg 91%
    16:00 +7°C° 0.1 mm 1 mps 748 mmHg 92%
    17:00 +7°C° 0.1 mm 1 mps 747 mmHg 93%
    18:00 +6°C° 0.1 mm 2 mps 747 mmHg 94%
    19:00 +6°C° 0.1 mm 2 mps 747 mmHg 94%
    20:00 +6°C° 0.1 mm 2 mps 746 mmHg 95%
    21:00 +6°C° 0 mm 2 mps 746 mmHg 95%
    22:00 +6°C° 0 mm 2 mps 745 mmHg 95%
    23:00 +5°C° 0 mm 2 mps 745 mmHg 95%

    23 January, Wednesday

    Time Temperature Precipitation Wind Pressure Humidity
    00:00 +5°C° 0 mm 2 mps 744 mmHg 95%
    01:00 +5°C° 0 mm 2 mps 743 mmHg 95%
    02:00 +6°C° 0 mm 2 mps 743 mmHg 95%
    03:00 +6°C° 1.4 mm 2 mps 742 mmHg 95%
    04:00 +5°C° 1.4 mm 3 mps 741 mmHg 96%
    05:00 +5°C° 1.4 mm 3 mps 740 mmHg 97%
    06:00 +7°C° 0.9 mm 3 mps 739 mmHg 96%
    07:00 +7°C° 0.9 mm 3 mps 739 mmHg 95%
    08:00 +8°C° 0.9 mm 3 mps 739 mmHg 94%
    09:00 +7°C° 0.5 mm 4 mps 738 mmHg 92%
    10:00 +8°C° 0.5 mm 5 mps 738 mmHg 90%
    11:00 +9°C° 0.5 mm 6 mps 738 mmHg 89%
    12:00 +10°C° 0.4 mm 5 mps 738 mmHg 82%
    13:00 +12°C° 0.4 mm 5 mps 737 mmHg 76%
    14:00 +13°C° 0.4 mm 5 mps 737 mmHg 69%
    15:00 +12°C° 0.9 mm 4 mps 737 mmHg 72%
    16:00 +11°C° 0.9 mm 4 mps 737 mmHg 74%
    17:00 +10°C° 0.9 mm 3 mps 737 mmHg 77%
    18:00 +9°C° 0.7 mm 3 mps 738 mmHg 78%
    19:00 +9°C° 0.7 mm 3 mps 738 mmHg 80%
    20:00 +8°C° 0.7 mm 2 mps 738 mmHg 82%
    21:00 +7°C° 0 mm 2 mps 739 mmHg 83%
    22:00 +7°C° 0 mm 2 mps 739 mmHg 83%
    23:00 +6°C° 0 mm 2 mps 739 mmHg 84%

    24 January, Thursday

    Time Temperature Precipitation Wind Pressure Humidity
    00:00 +6°C° 0 mm 2 mps 739 mmHg 85%
    01:00 +6°C° 0 mm 2 mps 739 mmHg 86%
    02:00 +5°C° 0 mm 2 mps 739 mmHg 87%
    03:00 +5°C° 0 mm 2 mps 739 mmHg 88%
    04:00 +5°C° 0 mm 2 mps 739 mmHg 89%
    05:00 +5°C° 0 mm 2 mps 739 mmHg 90%
    06:00 +5°C° 0 mm 2 mps 739 mmHg 92%
    07:00 +5°C° 0 mm 2 mps 739 mmHg 93%
    08:00 +5°C° 0 mm 2 mps 739 mmHg 95%
    09:00 +5°C° 0 mm 3 mps 738 mmHg 93%
    10:00 +8°C° 0 mm 3 mps 738 mmHg 91%
    11:00 +8°C° 0 mm 4 mps 738 mmHg 90%
    12:00 +9°C° 0.1 mm 3 mps 738 mmHg 88%
    13:00 +9°C° 0.1 mm 3 mps 738 mmHg 87%
    14:00 +10°C° 0.1 mm 3 mps 737 mmHg 86%
    15:00 +9°C° 0.2 mm 3 mps 737 mmHg 88%
    16:00 +9°C° 0.2 mm 2 mps 737 mmHg 91%
    17:00 +8°C° 0.2 mm 2 mps 737 mmHg 93%
    18:00 +8°C° 0.1 mm 2 mps 737 mmHg 94%
    19:00 +8°C° 0.1 mm 2 mps 738 mmHg 94%
    20:00 +8°C° 0.1 mm 2 mps 738 mmHg 95%
    21:00 +8°C° 0 mm 2 mps 738 mmHg 95%
    22:00 +8°C° 0 mm 3 mps 738 mmHg 94%
    23:00 +7°C° 0 mm 4 mps 738 mmHg 94%
    Show more